Notices

What's New in latest Release from April 7th, 2021:

- Updated Glossary, including Speed of Maximum Gust, and Total Hourly Precipitation

- Updated national and regional climate services offices contacts and prices information

- Addition of station inventory lists for 1981-2010, 1971-2000, and 1961-1990 Normals.

If you haven't already, please take our survey and provide feedback about our website: https://eccc.sondage-survey.ca/f/LanguageSelection.aspx?s=442ca660-fcf1-47c0-95a9-59707d6fd709

Hourly Data Report for April 26, 2017

MIRAMICHI RCS
NEW BRUNSWICK

47°00'34.000" N
65°27'54.000" W
33.00 m
8100989
71744
ACQ

Download Data

Hourly Data (April 2017)
Hourly Data Report for April 26, 2017
TIME
LST
Temp Definition
°C
Dew Point Definition
°C
Rel Hum Definition
%
Precip. Amount Definition
mm

Wind Dir Definition
10's deg

Wind Spd Definition
km/h
Visibility Definition
km
Stn Press Definition
kPa
Hmdx Definition


Wind Chill Definition


Weather Definition


00:00 4.3 -1.7 65 0.0   0   102.44     LegendNANA
01:00 3.9 0.5 78 0.4 0 1   102.39     LegendNANA
02:00 3.1 1.1 87 0.4 5 6   102.29     LegendNANA
03:00 3.0 1.4 89 0.5 5 5   102.25     LegendNANA
04:00 2.7 1.6 93 0.8 5 6   102.13     LegendNANA
05:00 2.9 1.8 93 1.1 5 8   102.09     LegendNANA
06:00 3.2 2.3 94 1.0 6 5   102.07     LegendNANA
07:00 3.6 2.8 94 2.4 8 6   102.00     LegendNANA
08:00 4.3 3.7 96 3.1 5 3   101.95     LegendNANA
09:00 5.6 4.8 94 0.0 13 7   101.89     LegendNANA
10:00 7.0 6.3 95 0.6 17 5   101.86     LegendNANA
11:00 8.5 7.7 95 0.8 16 8   101.77     LegendNANA
12:00 9.5 8.9 96 2.5 11 6   101.64     LegendNANA
13:00 10.8 10.2 96 2.9 15 10   101.54     LegendNANA
14:00 11.7 10.9 95 1.0 17 12   101.49     LegendNANA
15:00 12.2 11.5 95 1.2 19 10   101.43     LegendNANA
16:00 12.4 11.8 96 0.8 20 8   101.41     LegendNANA
17:00 12.7 12.1 97 0.9 24 6   101.39     LegendNANA
18:00 12.6 12.0 96 0.4 27 2   101.37     LegendNANA
19:00 11.9 11.6 98 0.0 21 4   101.38     LegendNANA
20:00 12.4 12.2 98 0.0 21 8   101.39     LegendNANA
21:00 12.3 12.1 98 0.2 21 4   101.39     LegendNANA
22:00 11.3 10.8 97 0.0 18 4   101.36     LegendNANA
23:00 11.4 11.0 98 0.0 18 1   101.35     LegendNANA

Notes on Data Quality.

Legend

  • E = Estimated
  • M = Missing
  • NA = Not Available*
  • [empty] = Indicates an unobserved value
Date modified: